World > North America > United States > Texas

Hourly East Hamilton, TX Regional Weather

Feedback E-mail the Weather

Quick WX

East Hamilton, TX Weather Maps

°F °C°F °C
East Hamilton Weather Map
UTC Time: 7/3/2022, 12:47
Your Time:

East Hamilton, TX Regional Weather

Expires:202207031300;;607743
ASUS44 KFWD 031215
RWRTX 
NORTH TEXAS HOURLY WEATHER ROUNDUP
NATIONAL WEATHER SERVICE FORT WORTH TX
700 AM CDT SUN JUL 03 2022

NOTE: "FAIR" INDICATES FEW OR NO CLOUDS BELOW 12,000 FEET WITH NO
SIGNIFICANT WEATHER AND/OR OBSTRUCTIONS TO VISIBILITY.


TXZ095>097-106>112-122>126-135>138-148>153-164>167-031300-
EAST TEXAS
  
CITY           SKY/WX    TMP DP  RH WIND       PRES   REMARKS
PARIS          FAIR      73  72  96 E5        30.01R                  
6HR MIN TEMP:  72; 6HR MAX TEMP:  75;                                

SULPHUR SPRNGS FAIR      74  73  96 CALM      30.02S                  
6HR MIN TEMP:  73; 6HR MAX TEMP:  76;                                

MOUNT PLEASANT   N/A     73  73 100 CALM      30.00S FOG              
6HR MIN TEMP:  71; 6HR MAX TEMP:  74;                                

GILMER         FAIR      75  73  91 S3        30.01R                  
6HR MIN TEMP:  73; 6HR MAX TEMP:  75;                                

MINEOLA          N/A     73  73 100 CALM      30.00S                  
TYLER          FAIR      79  75  87 S9        30.00S                  
6HR MIN TEMP:  78; 6HR MAX TEMP:  80;                                

LONGVIEW       FAIR      78  76  93 S8        30.00R                  
6HR MIN TEMP:  77; 6HR MAX TEMP:  79;                                

MARSHALL       FAIR      75  73  94 S3        30.03R                  
6HR MIN TEMP:  73; 6HR MAX TEMP:  75;                                

ATHENS         MOCLDY    77  73  88 S3        29.99S                  
PALESTINE      MOCLDY    77  77 100 MISG      30.00S                  
JACKSONVILLE   FAIR      76  75  97 SW5       30.04R                  
6HR MIN TEMP:  76; 6HR MAX TEMP:  79;                                

HENDERSON      FAIR      80  73  79 CALM      30.03S                  
6HR MIN TEMP:  80; 6HR MAX TEMP:  81;                                

NACOGDOCHES    MOCLDY    77  77 100 S5        30.04R                  
6HR MIN TEMP:  77; 6HR MAX TEMP:  80;                                

LUFKIN         FAIR      78  76  93 SE5       30.03R                  
6HR MIN TEMP:  77; 6HR MAX TEMP:  79;                                

$$

SUPPLEMENTAL OBSERVATIONS (NWS FORT WORTH AREA)
  
CITY           SKY/WX    TMP DP  RH WIND       PRES   REMARKS
CADDO GRASSLND   N/A     73  72  94 CALM        N/A                   
LBJ GRASSLAND    N/A     77  75  94 SE6         N/A                   
GRANBURY         N/A     81  72  74 SE7         N/A                   
MCGREGOR         N/A     79  73  83 S7          N/A         

SKY/WX - Weather  TMP - Temperature  DP - Dew Point  RH - Humidity
WIND - Wind Direction/Speed PRES - Barometric Pressure VSB - Visibility
WCI - Wind Chill Index E13G22 Wind - East Wind 13 mph/Gusts of 22 mph

Trending Headlines

East Hamilton Radar Loop



East Hamilton Quick Facts


National Two Day Weather Forecast


E-mail the East Hamilton Weather Forecast

Voice your opinion or tell us about page issues...